Weather History for EIKN - September, 2013

Change the Weather History Date:

Saturday, September 14, 2013

  Actual Average Record
Temperature  
Mean Temperature 52 °F -  
Max Temperature 60 °F - - ()
Min Temperature 45 °F - - ()
Degree Days  
Heating Degree Days 12    
Growing Degree Days 2 (Base 50)    
Moisture  
Dew Point 46 °F    
Average Humidity 75    
Maximum Humidity 88    
Minimum Humidity 59    
Precipitation  
Precipitation 0.01 in - - ()
Sea Level Pressure  
Sea Level Pressure 30.11 in    
Wind  
Wind Speed 5 mph ()    
Max Wind Speed 11 mph    
Max Gust Speed -    
Visibility 6.2 miles    
Events      
T = Trace of Precipitation, MM = Missing Value Source: Averaged Metar Reports

Daily Weather History Graph

Daily Weather History Graph

Search for Another Location

Airport or City:

Trip Planner

Search our weather history database for the weather conditions in past years. The results will help you decide how hot, cold, wet, or windy it might be!

Date:

Astronomy

Sep. 14, 2013 Rise Set
Actual Time 7:06 AM IST 7:53 PM IST
Civil Twilight 6:31 AM IST 8:29 PM IST
Nautical Twilight 5:47 AM IST 9:11 PM IST
Astronomical Twilight 5:01 AM IST 9:57 PM IST
Moon 4:58 PM IST (9/14) 12:45 AM IST (9/14)
Length of Visible Light 13h 58m
Length of Day
12h 46m
Waxing Gibbous, 70% of the Moon is Illuminated
Sep 14
Waxing Gibbous
Sep 19
Full
Sep 27
Last Quarter
Oct 5
New
Oct 12
First Quarter

Hourly Weather History & Observations

Time (IST) Temp. Dew Point Humidity Pressure Visibility Wind Dir Wind Speed Gust Speed Precip Events Conditions
1:00 AM 48 °F 45 °F 84% 30.14 in - WNW 4.5 mph - -  
7:00 AM 48 °F 44 °F 82% 30.13 in 25 mi WNW 4.5 mph - -   Mostly Cloudy
7:00 AM 48.2 °F 44.6 °F 87% 30.09 in - WNW 4.6 mph - N/A   Clear
7:30 AM 48.2 °F 44.6 °F 87% 30.12 in - WNW 4.6 mph - N/A   Clear
8:00 AM 48.2 °F 44.6 °F 87% 30.12 in - NW 3.5 mph - N/A   Clear
8:30 AM 48.2 °F 44.6 °F 87% 30.12 in 6.2 mi WNW 3.5 mph - N/A   Scattered Clouds
9:00 AM 50.0 °F 44.6 °F 82% 30.12 in 6.2 mi West 3.5 mph - N/A   Partly Cloudy
9:30 AM 50.0 °F 44.6 °F 82% 30.12 in 6.2 mi WNW 4.6 mph - N/A   Partly Cloudy
10:00 AM 51.8 °F 44.6 °F 76% 30.12 in 6.2 mi WNW 4.6 mph - N/A   Partly Cloudy
10:30 AM 53.6 °F 44.6 °F 72% 30.15 in 6.2 mi WNW 4.6 mph - N/A   Partly Cloudy
11:00 AM 53.6 °F 44.6 °F 72% 30.15 in 6.2 mi WNW 6.9 mph - N/A   Partly Cloudy
11:30 AM 55.4 °F 44.6 °F 67% 30.15 in 6.2 mi West 5.8 mph - N/A   Scattered Clouds
12:00 PM 55.4 °F 46.4 °F 72% 30.15 in 6.2 mi West 5.8 mph - N/A   Scattered Clouds
12:30 PM 55.4 °F 44.6 °F 67% 30.15 in 6.2 mi WNW 4.6 mph - N/A   Scattered Clouds
1:00 PM 56 °F 46 °F 59% 30.16 in 37 mi NNW 4.5 mph - -   Partly Cloudy
1:00 PM 55.4 °F 46.4 °F 72% 30.15 in 6.2 mi NNW 4.6 mph - N/A   Scattered Clouds
1:30 PM 55.4 °F 44.6 °F 67% 30.15 in 6.2 mi WNW 4.6 mph - N/A   Scattered Clouds
2:00 PM 57.2 °F 44.6 °F 63% 30.15 in 6.2 mi West 4.6 mph - N/A   Scattered Clouds
2:30 PM 57.2 °F 44.6 °F 63% 30.12 in 6.2 mi West 6.9 mph - N/A   Scattered Clouds
3:00 PM 59.0 °F 46.4 °F 63% 30.12 in 6.2 mi WSW 5.8 mph - N/A   Scattered Clouds
3:30 PM 59.0 °F 46.4 °F 63% 30.12 in 6.2 mi SW 6.9 mph - N/A   Partly Cloudy
4:00 PM 59.0 °F 46.4 °F 63% 30.09 in 6.2 mi SW 6.9 mph - N/A   Scattered Clouds
4:30 PM 57.2 °F 46.4 °F 67% 30.09 in 6.2 mi SW 6.9 mph - N/A   Partly Cloudy
5:00 PM 59.0 °F 44.6 °F 59% 30.09 in 6.2 mi SW 9.2 mph - N/A   Scattered Clouds
5:30 PM 59.0 °F 46.4 °F 63% 30.09 in 6.2 mi SSW 9.2 mph - N/A   Scattered Clouds
6:00 PM 57.2 °F 48.2 °F 72% 30.09 in 6.2 mi SW 9.2 mph - N/A   Scattered Clouds
6:30 PM 55.4 °F 50.0 °F 82% 30.09 in 6.2 mi WSW 9.2 mph - N/A   Mostly Cloudy
7:00 PM 54 °F 49 °F 76% 30.10 in 34 mi West 11.2 mph - -   Mostly Cloudy
7:00 PM 53.6 °F 48.2 °F 82% 30.09 in 6.2 mi West 10.4 mph - N/A   Mostly Cloudy
7:30 PM 53.6 °F 48.2 °F 82% 30.09 in 6.2 mi WSW 6.9 mph - N/A   Scattered Clouds
8:00 PM 51.8 °F 48.2 °F 88% 30.06 in 6.2 mi SSW 6.9 mph - N/A   Scattered Clouds
8:30 PM 50.0 °F 46.4 °F 87% 30.06 in 6.2 mi SSW 6.9 mph - N/A   Scattered Clouds
9:00 PM 50.0 °F 46.4 °F 87% 30.06 in 6.2 mi SSW 5.8 mph - N/A   Scattered Clouds
9:30 PM 50.0 °F 46.4 °F 87% 30.04 in 6.2 mi South 6.9 mph - N/A   Scattered Clouds
10:00 PM 50.0 °F 46.4 °F 87% 30.04 in 6.2 mi SSW 10.4 mph - N/A   Mostly Cloudy